Location: Landeleau
(48.2273°N, 3.7285°W)
Time: 09:56:16
(UTC+00:00)

USA 234 - Pass Details

Date: 30 March 2020
Orbit: 1102 x 1106 km, 123.0° (Epoch: 14 May)

Event Time Altitude Azimuth Distance (km) Brightness Sun altitude
Rises 23:33:58 0° 71° (ENE) 3,922 6.2 -36.6°
Reaches altitude 10° 23:36:34 10° 65° (ENE) 2,965 5.6 -36.7°
Maximum altitude 23:42:36 42° 357° (N) 1,540 4.3 -36.9°
Drops below altitude 10° 23:48:39 10° 290° (WNW) 2,966 5.8 -37.1°
Sets 23:51:15 0° 284° (WNW) 3,924 6.4 -37.2°
